Wind_Speed
28 28 28 28 28 28 26 24 23 22 21 21 21 20 19 19 18 18 17 17 17 16 16 16 15 14 14 14 14 14 13 13 13 12 12 11 10 10 9 8 8 8 8 7 7 7 6 6 6
30 30 30 31 31 29 27 25 25 25 23 23 23 23 22 21 20 19 19 19 19 19 18 18 18 17 16 16 16 16 15 15 15 14 14 13 12 11 11 10 10 10 10 9 9 8 8 8 8
32 32 33 33 33 31 28 26 26 27 26 25 25 25 25 24 23 22 21 21 21 21 20 20 20 20 19 18 18 18 17 17 17 16 16 15 14 13 13 12 12 11 11 10 10 10 10 10 9
33 34 35 35 34 32 31 29 29 29 28 27 27 27 27 26 25 24 24 23 23 23 23 22 22 22 21 21 20 20 19 19 19 18 18 17 16 15 15 14 14 13 13 12 12 12 11 11 11
34 35 37 36 34 33 33 32 32 32 31 30 29 29 28 27 27 26 26 26 25 25 25 25 24 23 23 23 22 22 21 21 21 20 20 19 18 17 16 16 15 15 14 14 13 13 13 13 13
36 37 38 37 35 34 34 34 34 35 34 33 32 31 30 30 29 28 28 28 27 27 26 26 26 26 25 25 24 24 24 23 23 22 22 21 20 19 19 18 17 17 16 16 15 15 15 15 15
36 37 38 38 36 36 35 36 36 37 37 35 35 34 32 32 31 31 30 29 29 29 28 28 28 28 28 28 27 26 26 26 25 25 24 23 22 21 21 20 20 19 19 18 18 17 17 17 17
37 38 38 38 37 36 36 38 38 39 39 38 38 36 35 34 34 33 32 32 31 30 30 30 30 30 30 30 29 29 28 28 28 27 26 25 24 24 23 23 22 21 21 21 20 19 19 19 19
38 40 40 39 38 37 37 38 39 40 40 39 39 38 36 36 35 34 34 34 33 32 31 31 32 32 32 32 31 30 30 30 29 29 29 28 27 26 25 25 25 24 23 23 22 21 21 20 20
38 40 39 38 38 38 38 38 39 40 41 40 39 39 38 37 37 36 35 34 34 34 33 33 33 33 33 33 33 32 31 32 31 31 30 30 29 28 27 27 27 26 26 26 25 24 24 23 22
37 38 38 38 39 39 38 39 39 40 41 41 41 40 40 40 39 38 36 36 36 35 35 34 34 34 34 34 34 33 33 32 32 31 31 31 30 29 28 27 27 27 27 27 27 26 26 25 24
37 36 37 38 38 40 40 40 41 41 41 41 42 42 43 42 41 40 39 38 37 36 35 35 34 34 34 34 34 34 34 32 32 31 31 31 30 30 29 29 29 28 28 28 28 28 28 27 26
36 36 37 38 39 39 40 41 42 41 41 42 43 42 43 43 42 41 40 39 38 38 37 37 36 35 35 35 35 35 34 33 33 32 32 32 32 31 31 30 30 30 30 30 30 30 29 29 28
35 36 38 39 40 40 41 41 42 41 42 43 43 43 43 43 44 43 42 41 40 40 40 39 38 37 36 35 35 35 34 33 34 33 33 33 33 33 32 31 31 31 31 31 31 31 31 31 30
36 37 37 38 40 41 42 43 42 41 43 43 43 42 43 44 44 44 42 42 42 42 42 40 40 39 38 36 36 36 35 35 35 34 34 33 33 33 33 33 33 33 33 33 32 32 32 32 32
37 38 39 38 40 40 42 43 40 41 43 43 43 43 44 44 45 44 43 43 43 43 43 42 41 40 40 39 37 37 37 36 36 36 36 35 35 34 35 34 34 34 34 34 34 34 33 33 33
36 38 38 39 39 41 42 41 40 40 43 44 44 44 44 45 45 44 43 43 43 44 44 43 43 42 42 41 40 39 39 38 37 37 37 37 37 36 36 36 35 35 35 35 35 35 35 34 34
34 36 37 38 39 41 42 41 41 41 42 43 43 44 43 44 44 43 43 42 43 43 44 44 44 43 43 43 43 41 40 40 39 38 38 38 38 37 37 37 37 36 36 35 36 36 36 36 36
33 34 35 36 37 39 41 41 40 41 41 42 42 42 42 43 43 43 43 42 42 42 43 44 44 45 45 44 44 43 42 42 41 40 40 38 38 38 38 37 37 38 37 37 37 37 38 38 38
33 33 33 34 36 38 39 40 40 40 40 41 40 41 42 42 42 42 43 43 42 42 43 43 43 45 45 45 45 44 43 43 42 41 40 40 39 39 38 38 38 38 39 39 38 38 38 39 39
31 32 33 33 34 37 38 39 39 39 39 39 39 40 40 40 41 41 41 42 42 42 43 42 43 44 45 45 45 44 43 43 43 43 41 40 40 40 39 39 40 40 39 39 39 39 38 39 40
30 31 32 32 33 34 35 39 37 38 38 38 39 39 39 40 40 40 40 41 41 42 42 42 42 43 44 45 45 44 44 43 43 43 42 41 40 41 40 41 40 41 40 40 40 40 40 40 41
28 28 30 30 31 33 33 37 37 37 37 38 38 38 38 38 38 38 38 40 41 41 42 42 42 42 43 44 44 44 44 43 43 43 42 41 40 41 41 41 41 41 41 41 41 41 41 42 42
26 27 28 29 30 32 30 33 35 35 35 35 35 36 37 37 38 37 37 38 39 40 42 43 42 42 42 42 43 43 44 44 44 43 42 41 41 41 42 42 41 41 41 40 40 40 41 42 42
24 25 26 27 30 31 29 30 31 32 32 32 32 32 34 35 36 36 36 35 37 40 41 41 42 42 40 40 41 43 43 44 44 44 44 42 41 42 42 43 41 41 40 40 40 41 42 43 43
22 23 24 26 28 28 28 30 29 28 29 30 30 32 33 34 35 35 34 35 36 38 40 40 40 40 40 40 39 41 42 43 44 44 44 43 42 43 43 42 41 41 40 40 40 42 43 43 43
21 21 22 23 24 24 25 26 25 24 25 26 27 28 31 33 34 33 33 33 35 37 38 40 40 39 39 38 39 39 40 42 43 44 44 43 43 42 43 42 42 42 41 41 41 41 42 43 44
21 21 21 21 22 21 21 20 20 21 23 23 24 25 27 29 30 30 31 32 32 35 37 38 39 38 38 38 38 38 39 40 41 42 43 43 43 42 43 43 43 42 41 42 43 43 43 44 44
21 21 21 22 22 22 23 22 20 20 20 21 21 22 25 27 27 28 30 31 32 34 36 37 38 38 37 37 38 38 39 39 39 40 42 42 43 43 44 44 44 44 44 44 44 43 43 43 44
20 19 20 21 21 22 23 21 19 20 21 20 21 21 22 24 26 27 28 30 32 34 36 37 37 37 37 37 38 39 39 39 39 39 40 42 43 43 43 44 44 44 44 45 45 45 44 44 45
Wind_Direction
244 245 245 245 245 246 245 245 246 245 244 244 244 244 245 246 246 247 245 245 245 243 242 242 243 244 246 246 246 246 245 246 248 250 252 253 252 251 249 249 247 246 246 249 251 254 260 266 272
245 245 246 245 245 246 246 246 246 247 246 245 245 245 245 246 247 247 246 245 244 244 244 243 244 246 247 247 247 247 246 246 247 249 250 251 250 249 249 248 247 247 249 251 254 257 261 265 271
246 246 247 247 246 247 246 246 247 247 247 246 246 246 245 246 246 247 247 245 244 245 247 247 246 246 247 248 248 248 247 247 248 249 250 250 250 251 250 248 247 247 249 252 256 259 261 264 269
247 247 248 248 248 247 247 246 246 247 247 247 248 247 247 247 248 248 247 245 245 245 246 248 248 248 248 247 248 249 248 247 248 248 249 249 251 251 249 248 248 247 249 254 259 261 262 264 268
248 248 249 249 250 248 247 247 246 247 248 249 248 248 249 249 250 249 250 248 247 246 247 248 248 249 249 248 248 248 249 248 247 248 249 248 249 250 249 247 247 248 251 254 258 263 265 267 269
250 249 250 251 251 250 248 247 247 248 248 249 249 248 249 250 250 250 251 252 251 249 249 249 249 250 251 250 249 248 248 249 250 249 249 248 248 248 248 248 247 249 252 255 259 263 266 268 270
251 251 252 252 250 249 249 248 247 248 248 248 249 248 248 250 251 251 251 252 252 252 251 250 250 251 251 251 251 250 248 249 249 249 248 248 248 248 249 248 249 250 253 256 260 263 267 269 270
253 253 252 251 250 249 249 248 248 248 247 247 248 248 247 249 250 251 251 251 251 251 251 251 251 251 252 251 252 251 250 249 249 248 248 248 249 250 250 250 250 251 253 256 259 262 266 269 271
255 254 253 252 252 250 249 249 249 248 248 247 247 247 247 248 248 249 250 249 249 250 250 250 250 251 252 253 253 253 251 250 249 248 247 247 248 249 250 251 252 253 255 257 259 262 265 268 270
256 255 254 254 253 251 250 250 250 249 247 246 246 246 247 247 248 248 248 247 249 250 250 250 251 251 251 252 252 253 253 251 250 250 248 248 248 249 250 251 252 254 256 257 259 262 264 267 269
257 256 254 253 253 252 250 249 250 250 248 246 245 245 246 247 247 247 246 247 248 249 249 250 250 251 250 249 250 251 253 252 250 250 249 248 247 248 249 250 251 254 256 257 259 261 263 266 269
258 256 254 254 253 252 250 249 248 249 249 247 245 245 245 247 248 247 246 246 247 247 248 249 249 250 249 248 249 250 251 252 249 248 248 247 247 248 249 250 252 254 255 257 259 261 263 265 268
260 257 255 254 253 253 252 250 248 248 248 246 246 245 246 245 246 246 247 246 247 248 248 249 248 248 248 248 247 248 248 249 247 246 247 247 248 249 251 252 253 254 256 257 259 261 262 264 266
262 259 256 255 254 254 254 253 249 248 248 247 246 246 247 247 246 246 246 246 247 248 248 248 248 247 247 247 246 245 245 247 247 247 247 247 249 250 251 252 254 255 257 258 259 259 261 263 265
262 260 258 256 256 254 254 253 250 248 248 247 246 246 248 247 246 246 246 247 246 246 246 246 247 247 246 245 243 243 244 245 246 246 247 248 249 249 251 253 254 256 257 258 258 259 260 263 266
262 261 259 257 256 255 255 254 252 249 248 246 246 246 247 247 246 246 247 247 246 245 245 245 245 246 245 244 243 243 244 245 247 246 247 248 249 250 252 253 254 256 257 258 259 259 260 262 265
262 261 260 258 257 255 255 255 252 249 248 246 247 247 246 246 246 246 246 246 246 245 244 244 244 245 244 243 243 243 244 246 247 247 247 248 250 251 252 253 254 255 256 257 259 259 260 262 264
264 263 260 259 258 257 256 254 251 249 249 247 247 247 247 247 246 246 245 245 245 245 245 244 244 244 243 243 242 243 244 245 247 248 248 249 250 251 252 254 255 255 255 257 259 260 261 262 264
266 265 263 260 259 258 256 254 252 250 250 248 248 247 248 245 244 244 244 244 245 245 245 244 244 243 242 242 242 243 243 245 246 248 248 249 250 251 252 254 256 257 256 257 259 260 261 262 264
267 266 265 262 260 259 256 254 253 251 251 250 248 248 246 244 243 244 244 244 245 244 244 244 243 243 242 241 241 242 243 244 245 248 248 248 250 252 254 255 257 257 259 259 259 260 261 263 264
267 266 266 263 261 261 260 254 251 250 250 249 248 247 246 243 242 243 244 244 245 244 243 243 244 244 242 239 239 240 241 243 245 247 249 249 251 253 254 255 257 258 260 261 261 261 262 264 265
269 268 267 265 264 263 261 258 249 249 250 249 248 247 245 243 243 243 243 244 244 243 243 242 243 243 241 238 238 240 241 241 244 246 249 250 252 253 255 257 258 259 260 262 263 264 263 264 266
271 271 269 268 267 264 260 260 253 251 250 251 249 246 244 243 242 243 243 243 242 241 241 241 243 242 240 237 238 240 241 242 244 246 249 252 254 255 256 257 258 260 261 262 263 264 265 265 266
271 270 269 268 267 265 263 262 257 252 253 253 251 247 244 243 240 241 242 242 242 240 240 241 241 240 239 237 237 239 241 242 244 246 249 253 254 254 255 256 257 259 261 262 264 264 265 266 267
271 271 271 269 266 265 262 263 262 256 256 255 253 249 246 243 241 240 241 241 240 239 239 239 240 239 238 239 239 240 241 243 245 246 249 251 253 254 255 255 256 257 260 262 264 265 266 267 267
272 272 271 273 272 269 264 266 265 261 258 257 256 252 248 245 242 241 241 242 240 238 238 238 238 237 238 240 240 240 242 243 245 247 248 251 253 254 254 254 255 257 260 261 264 267 269 270 270
275 274 272 271 272 275 271 269 266 263 257 257 256 254 249 245 243 242 241 242 240 238 237 237 236 236 238 240 240 242 243 245 246 247 248 250 252 253 254 254 255 257 260 262 265 269 270 271 272
274 274 272 271 274 277 276 274 271 267 263 260 256 251 247 243 241 241 241 241 239 236 236 235 235 236 239 240 242 244 245 246 247 248 249 251 252 253 254 255 255 258 261 264 266 268 268 270 271
273 270 268 268 272 276 275 276 275 271 268 263 259 252 245 241 241 239 238 238 238 236 234 233 236 239 240 241 243 246 246 247 248 251 251 251 252 253 254 255 256 258 261 263 265 266 268 270 272
274 270 266 267 272 275 277 276 274 273 270 264 257 251 247 244 242 239 240 240 239 237 235 236 239 240 241 243 245 247 248 248 250 252 253 253 254 254 254 255 258 259 261 263 265 266 267 270 272
Height
5824 5825 5827 5829 5830 5831 5833 5837 5838 5840 5841 5842 5843 5844 5845 5847 5848 5851 5851 5850 5851 5852 5852 5853 5853 5854 5855 5855 5856 5856 5857 5858 5858 5859 5859 5859 5860 5860 5860 5860 5861 5861 5861 5861 5861 5861 5861 5861 5861
5818 5820 5822 5823 5823 5825 5829 5832 5834 5835 5837 5837 5838 5840 5841 5842 5844 5845 5846 5846 5847 5848 5849 5850 5850 5851 5852 5852 5853 5854 5854 5855 5856 5856 5857 5857 5858 5858 5858 5858 5859 5859 5859 5859 5859 5860 5860 5860 5859
5812 5813 5815 5816 5817 5820 5825 5827 5829 5829 5830 5832 5833 5834 5836 5838 5839 5841 5842 5842 5844 5845 5845 5846 5847 5848 5848 5849 5850 5851 5851 5852 5853 5854 5854 5855 5855 5856 5856 5856 5857 5857 5857 5857 5858 5858 5858 5858 5858
5805 5806 5807 5809 5811 5815 5818 5821 5822 5823 5825 5826 5828 5829 5831 5833 5835 5836 5837 5838 5839 5840 5841 5842 5843 5844 5844 5845 5846 5847 5848 5849 5849 5850 5851 5852 5852 5853 5853 5854 5854 5855 5855 5855 5855 5856 5856 5856 5855
5797 5798 5799 5800 5804 5808 5811 5813 5814 5816 5818 5820 5822 5824 5826 5828 5829 5831 5832 5833 5834 5835 5836 5837 5838 5839 5840 5841 5842 5843 5844 5845 5846 5847 5847 5848 5849 5849 5850 5851 5851 5852 5852 5852 5853 5853 5853 5853 5853
5789 5790 5791 5793 5797 5801 5803 5805 5806 5809 5811 5813 5815 5817 5820 5822 5823 5825 5826 5827 5828 5830 5831 5832 5833 5834 5835 5836 5837 5838 5839 5840 5841 5842 5843 5844 5845 5846 5846 5847 5848 5848 5849 5849 5850 5850 5850 5850 5850
5781 5782 5783 5786 5789 5792 5795 5796 5798 5800 5803 5806 5808 5810 5813 5815 5817 5818 5820 5821 5822 5824 5825 5826 5827 5828 5829 5830 5831 5832 5833 5835 5836 5837 5838 5839 5840 5841 5842 5843 5844 5845 5845 5846 5846 5847 5847 5847 5847
5772 5774 5774 5777 5780 5784 5786 5787 5789 5792 5794 5797 5800 5802 5805 5808 5809 5811 5813 5814 5815 5817 5818 5819 5821 5822 5823 5824 5825 5826 5827 5829 5830 5832 5833 5834 5835 5836 5837 5838 5839 5840 5841 5842 5842 5843 5843 5843 5843
5764 5765 5766 5769 5772 5775 5777 5778 5780 5783 5785 5788 5791 5794 5797 5799 5801 5803 5805 5806 5808 5809 5811 5812 5814 5815 5816 5817 5818 5820 5821 5823 5824 5825 5827 5828 5830 5831 5832 5833 5834 5835 5836 5837 5838 5838 5839 5839 5839
5754 5755 5759 5761 5763 5765 5768 5769 5771 5773 5776 5779 5782 5785 5787 5790 5792 5795 5796 5798 5800 5802 5804 5805 5806 5807 5808 5810 5811 5812 5814 5816 5817 5819 5820 5822 5823 5825 5826 5827 5829 5830 5831 5832 5833 5833 5834 5834 5834
5745 5747 5750 5751 5753 5755 5757 5759 5761 5763 5766 5770 5773 5776 5778 5780 5783 5786 5788 5790 5792 5794 5796 5797 5799 5800 5801 5802 5803 5805 5807 5808 5810 5811 5813 5815 5817 5818 5820 5821 5822 5824 5825 5826 5827 5828 5829 5829 5829
5737 5739 5740 5742 5743 5744 5747 5749 5751 5753 5757 5760 5763 5765 5768 5771 5773 5776 5778 5781 5783 5785 5787 5789 5791 5792 5793 5794 5796 5797 5799 5801 5803 5805 5806 5808 5810 5812 5814 5815 5817 5818 5819 5820 5821 5822 5823 5824 5824
5729 5730 5731 5732 5733 5734 5736 5738 5740 5744 5746 5749 5752 5755 5758 5761 5763 5766 5768 5771 5774 5776 5778 5780 5782 5784 5785 5787 5788 5790 5792 5794 5796 5798 5800 5802 5804 5805 5807 5809 5810 5811 5813 5814 5815 5815 5816 5817 5818
5720 5720 5721 5722 5723 5724 5726 5728 5730 5734 5735 5737 5740 5744 5747 5750 5752 5755 5758 5761 5764 5766 5769 5771 5773 5775 5777 5779 5781 5783 5785 5787 5789 5791 5793 5795 5797 5798 5800 5802 5803 5805 5806 5807 5808 5809 5809 5810 5811
5709 5710 5711 5712 5712 5713 5714 5716 5720 5723 5724 5726 5729 5733 5736 5738 5741 5744 5747 5749 5753 5756 5758 5761 5764 5766 5769 5771 5773 5775 5777 5780 5782 5784 5786 5788 5789 5791 5793 5794 5796 5797 5799 5800 5801 5801 5802 5803 5804
5699 5699 5700 5702 5702 5702 5703 5706 5711 5712 5712 5716 5718 5721 5724 5726 5729 5732 5735 5738 5741 5744 5748 5751 5754 5756 5759 5762 5765 5767 5770 5772 5774 5776 5778 5780 5782 5784 5785 5787 5788 5790 5791 5792 5793 5794 5795 5796 5797
5688 5689 5690 5691 5691 5691 5692 5695 5700 5700 5701 5704 5706 5708 5711 5714 5718 5721 5724 5727 5729 5732 5736 5740 5743 5746 5750 5753 5756 5759 5761 5764 5766 5768 5770 5772 5774 5776 5777 5779 5780 5782 5783 5784 5785 5786 5788 5789 5789
5679 5679 5679 5680 5681 5680 5681 5684 5687 5689 5689 5692 5694 5696 5699 5703 5706 5709 5712 5715 5718 5721 5724 5728 5732 5735 5739 5742 5746 5749 5752 5755 5757 5760 5762 5763 5766 5767 5769 5771 5772 5774 5775 5776 5777 5778 5779 5780 5781
5669 5669 5670 5671 5670 5670 5671 5673 5675 5677 5678 5680 5682 5685 5688 5691 5694 5697 5700 5704 5707 5710 5713 5716 5720 5724 5727 5731 5736 5739 5743 5746 5749 5751 5753 5755 5757 5759 5761 5762 5764 5765 5766 5768 5769 5770 5771 5772 5772
5660 5659 5660 5661 5660 5659 5660 5662 5665 5666 5667 5670 5672 5674 5676 5679 5683 5686 5689 5692 5695 5698 5701 5705 5708 5712 5715 5720 5725 5729 5733 5736 5739 5742 5744 5746 5748 5750 5752 5754 5755 5756 5758 5759 5760 5761 5762 5762 5763
5651 5650 5650 5650 5650 5649 5649 5651 5655 5656 5657 5659 5661 5663 5665 5668 5672 5675 5678 5681 5684 5687 5690 5694 5697 5700 5704 5708 5713 5718 5722 5726 5729 5732 5735 5737 5739 5741 5743 5745 5746 5747 5748 5750 5751 5752 5753 5754 5754
5642 5642 5641 5640 5639 5639 5640 5639 5645 5646 5647 5649 5651 5653 5655 5658 5661 5664 5667 5670 5673 5676 5679 5683 5686 5689 5693 5697 5702 5707 5712 5716 5720 5723 5725 5727 5729 5732 5734 5735 5736 5738 5739 5740 5742 5743 5744 5744 5744
5634 5633 5632 5631 5630 5630 5630 5629 5635 5636 5637 5639 5641 5642 5645 5647 5650 5653 5656 5659 5662 5665 5668 5672 5675 5678 5682 5687 5692 5697 5702 5706 5709 5712 5715 5718 5720 5722 5724 5726 5727 5728 5729 5731 5732 5733 5733 5734 5734
5626 5626 5625 5623 5622 5622 5623 5621 5623 5626 5628 5630 5631 5632 5634 5637 5640 5642 5645 5648 5651 5653 5657 5661 5664 5668 5672 5677 5682 5687 5692 5695 5699 5702 5705 5708 5710 5712 5714 5715 5717 5718 5719 5721 5722 5722 5723 5723 5724
5620 5619 5617 5616 5614 5614 5615 5612 5614 5618 5619 5620 5621 5622 5625 5627 5629 5632 5635 5638 5640 5643 5647 5651 5654 5658 5663 5667 5672 5677 5682 5685 5689 5693 5696 5698 5700 5702 5704 5705 5707 5708 5710 5711 5712 5712 5712 5713 5713
5613 5613 5612 5610 5608 5608 5607 5605 5608 5611 5611 5611 5612 5614 5615 5617 5619 5622 5625 5628 5631 5634 5638 5641 5645 5650 5654 5658 5663 5667 5672 5675 5679 5683 5686 5688 5690 5692 5694 5695 5697 5699 5700 5701 5702 5702 5702 5702 5703
5608 5607 5606 5604 5603 5602 5601 5601 5602 5603 5603 5604 5605 5606 5607 5609 5611 5614 5617 5619 5622 5626 5629 5633 5637 5642 5646 5650 5655 5659 5662 5666 5669 5673 5676 5678 5680 5682 5684 5685 5687 5689 5690 5691 5692 5692 5691 5692 5692
5603 5601 5600 5598 5597 5596 5596 5596 5598 5597 5597 5598 5599 5599 5600 5601 5603 5606 5609 5612 5614 5618 5622 5626 5630 5635 5639 5643 5647 5650 5654 5656 5660 5663 5665 5668 5670 5672 5674 5675 5677 5679 5680 5681 5681 5682 5682 5682 5682
5597 5597 5595 5593 5593 5592 5591 5594 5593 5592 5592 5592 5593 5593 5594 5595 5597 5599 5602 5604 5607 5610 5614 5618 5623 5627 5631 5635 5639 5642 5645 5648 5650 5653 5656 5658 5660 5661 5663 5665 5666 5668 5669 5670 5671 5671 5671 5671 5671
5592 5591 5590 5589 5589 5587 5586 5590 5588 5588 5587 5587 5588 5588 5589 5590 5591 5593 5595 5598 5601 5604 5607 5611 5616 5620 5624 5627 5630 5634 5636 5639 5641 5644 5646 5647 5649 5651 5652 5654 5655 5657 5658 5659 5659 5660 5660 5660 5660